Hourly Data Report for March 22, 2021

OTTAWA INTL A
ONTARIO
Current Station Operator: NAVCAN

45°19'00.000" N
75°40'00.000" W
114.90 m
6106001
71628
YOW

Download Data

Hourly Data (March 2021)
Hourly Data Report for March 22, 2021
TIME
LST
Temp Definition
°C
Dew Point Definition
°C
Rel Hum Definition
%
Precip. Amount Definition
mm

Wind Dir Definition
10's deg

Wind Spd Definition
km/h
Visibility Definition
km
Stn Press Definition
kPa
Hmdx Definition


Wind Chill Definition


Weather Definition


00:00 2.3 -7.7 47   36 2 24.1 101.43     LegendNANA
01:00 -1.9 -7.2 67   11 10 24.1 101.40   -6 Clear
02:00 -1.0 -7.4 62   6 4 24.1 101.36   -2 LegendNANA
03:00 -1.4 -7.6 63   7 7 24.1 101.32   -4 LegendNANA
04:00 -2.0 -7.7 65   6 5 24.1 101.33   -4 Clear
05:00 -2.5 -7.3 70   13 7 24.1 101.34   -5 LegendNANA
06:00 -3.6 -7.5 74   11 4 24.1 101.34   -5 LegendNANA
07:00 0.7 -5.4 64   11 5 24.1 101.36     Clear
08:00 4.4 -5.7 48   19 12 24.1 101.37     LegendNANA
09:00 8.9 -4.8 38   20 17 24.1 101.34     LegendNANA
10:00 12.0 -4.2 32   19 17 24.1 101.26     Clear
11:00 14.5 -4.6 26   18 15 24.1 101.18     LegendNANA
12:00 16.2 -5.1 23   18 21 24.1 101.10     LegendNANA
13:00 17.0 -4.4 23   20 17 24.1 101.01     Clear
14:00 17.4 -4.9 21   21 14 24.1 100.95     LegendNANA
15:00 18.0 -6.3 18   19 17 24.1 100.89     LegendNANA
16:00 17.8 -7.6 17   20 18 24.1 100.83     Mainly Clear
17:00 16.8 -8.3 17   19 17 24.1 100.84     LegendNANA
18:00 13.1 -7.0 24   16 11 24.1 100.84     LegendNANA
19:00 12.2 -10.2 20   18 11 24.1 100.84     Mainly Clear
20:00 10.7 -11.0 21   17 7 24.1 100.84     LegendNANA
21:00 10.3 -9.5 24   18 9 24.1 100.86     LegendNANA
22:00 8.0 -8.3 31   17 6 24.1 100.89     Mainly Clear
23:00 7.1 -7.6 34   16 10 24.1 100.86     LegendNANA

Notes on Data Quality.

Legend

  • E = Estimated
  • M = Missing
  • NA = Not Available*
  • [empty] = Indicates an unobserved value
Date modified: